Location: ??? ?????
(30.6482°N, 60.5850°E)
Time: 22:24:31
(UTC+00:00)

BREEZE M DEB (TANK) - Pass Details

Date: 09 April 2020
Orbit: 304 x 11878 km, 49.5° (Epoch: 22 May)

Event Time Altitude Azimuth Distance (km) Brightness Sun altitude
Rises 15:24:35 0° 240° (WSW) 1,992 5.8 -13.9°
Reaches altitude 10° 15:26:07 10° 248° (WSW) 1,230 4.9 -14.2°
Maximum altitude 15:28:21 47° 325° (NW) 556 2.7 -14.7°
Drops below altitude 10° 15:32:32 10° 41° (NE) 2,294 5.2 -15.5°
Sets 15:36:36 0° 47° (NE) 4,240 6.6 -16.3°
